Location: Aragoneses
(41.0275°N, 4.3847°W)
Time: 23:53:43
(UTC+00:00)

Cosmos 1726 Rocket - Pass Details

Date: 11 December 2025
Orbit: 553 x 663 km, 82.5° (Epoch: 14 January)

Event Time Altitude Azimuth Distance (km) Brightness Sun altitude
Rises 18:15:46 0° 193° (SSW) 2,982 7.5 -15.8°
Reaches altitude 10° 18:18:02 10° 196° (SSW) 2,076 6.7 -16.2°
Maximum altitude 18:22:39 67° 279° (W) 716 4.0 -17.0°
Drops below altitude 10° 18:27:15 10° 2° (N) 2,070 6.1 -17.8°
Enters shadow 18:29:11 - 5° (N) 2,841 6.8 -18.2°
